Regional Weather Roundup
Issued by NWS

Home | Current Version | Previous Version | Graphics & Text | Print | Product List | Glossary On
Versions: 1 2 3 4 5 6 7 8 9 10 11 12 13 14 15 16 17 18 19 20 21 22 23 24 25 26 27 28 29 30 31 32 33 34 35 36 37 38 39 40 41 42 43 44 45 46 47 48 49 50
000
ASUS43 KMPX 271110
RWRMN
WEATHER ROUNDUP FOR MINNESOTA
NATIONAL WEATHER SERVICE TWIN CITIES/CHANHASSEN MN
600 AM CDT THU JUL 27 2017


NOTE: "FAIR" INDICATES FEW OR NO CLOUDS BELOW 12,000 FEET WITH NO
SIGNIFICANT WEATHER AND/OR OBSTRUCTIONS TO VISIBILITY. N/A MEANS
CURRENT SKY AND/OR WEATHER CONDITIONS ARE NOT AVAILABLE.

MNZ060>063-068>070-271200-
   Twin Cities Metro

CITY           SKY/WX    TMP DP  RH WIND       PRES   REMARKS
TWIN CITIES    CLEAR     67  60  78 N6        30.05S
ST PAUL        CLEAR     66  62  87 W5        30.05S
CRYSTAL        CLEAR     63  57  81 N3        30.05R
BLAINE         CLEAR     63  61  94 CALM      30.06S
LAKEVILLE      CLEAR     63  63 100 N3        30.05S
EDEN PRAIRIE   CLEAR     66  60  81 N6        30.04S
SOUTH ST PAUL  CLEAR     66  61  82 N5        30.04S
LAKE ELMO      FAIR      63  61  94 N5        30.06S
$$
MNZ001>005-007-008-013>017-022>024-027-028-271200-
   Northwest Minnesota

CITY           SKY/WX    TMP DP  RH WIND       PRES   REMARKS
BEMIDJI        CLEAR     55  53  94 CALM      30.12S
HALLOCK        CLEAR     54  54 100 SE3       30.10R FOG
ROSEAU         CLEAR     59  54  82 CALM      30.11R
WARROAD        PTCLDY    57  54  88 CALM      30.11S
THIEF RVR FALL CLEAR     60  57  89 CALM      30.12S
CROOKSTON      MOCLDY    55  54  94 CALM      30.12S FOG
FOSSTON          N/A     52  50  93 CALM      30.13S FOG
DETROIT LAKES  CLEAR     63  59  88 CALM      30.14R
MOORHEAD       CLEAR     55  54  94 CALM      30.13R
PARK RAPIDS    CLEAR     57  55  93 NW3       30.12R
MAHNOMEN       FAIR      56  55  99 SE3       30.12S FOG
$$
MNZ006-009>011-018-025>026-271200-
   North Central Minnesota

CITY           SKY/WX    TMP DP  RH WIND       PRES   REMARKS
BAUDETTE       FOG       54  54 100 W5        30.10R VSB 3/4
FLAG ISLAND    CLEAR     64  61  88 NW5       30.09R
INTL FALLS     CLEAR     50  48  93 CALM      30.09R FOG
WASKISH        CLEAR     55  54  94 CALM      30.11R
BIG FORK       CLEAR     52  50  93 CALM      30.11S
LONGVILLE      FOG       59  57  94 CALM      30.11R VSB 1/2
GRAND RAPIDS   FOG       59  57  94 CALM      30.12S VSB 3/4
CRANE LAKE     CLEAR     48  48 100 CALM      30.11R
ORR            CLEAR     55  54  94 CALM      30.08S
COOK             N/A     54  52  94 CALM      30.10S
WALKER         FAIR      56  56  97 CALM      30.12S
$$
MNZ012-019>021-037-271200-
   Northeast Minnesota

CITY           SKY/WX    TMP DP  RH WIND       PRES   REMARKS
DULUTH         CLEAR     59  58  96 NW6       30.09R
ELY            CLEAR     52  52 100 CALM      30.10R
HIBBING        PTCLDY    50  50 100 CALM      30.09S
EVELETH        CLEAR     53  50  90 CALM      30.11R
DULUTH HARBOR  CLEAR     63  61  94 CALM      30.07S
TWO HARBORS    CLEAR     59  54  82 CALM      30.06R
SILVER BAY     CLEAR     57  55  94 CALM      30.06S
GRAND MARAIS     N/A     67  58  72 N9        30.04R
G MARAIS ARPRT CLEAR     54  50  87 CALM      30.11R
$$
MNZ029>031-032-039>041-046>048-054>057-064-271200-
   West Central Minnesota

CITY           SKY/WX    TMP DP  RH WIND       PRES   REMARKS
FERGUS FALLS   CLEAR     61  61 100 CALM      30.11S
WHEATON        CLEAR     57  55  94 CALM      30.13S
MORRIS         CLEAR     59  57  94 N5        30.10S
ALEXANDRIA     CLEAR     63  60  90 NE7       30.12F
ELBOW LAKE     FOG       62  62  97 CALM      30.11F VSB 1/4
WADENA         CLEAR     55  55 100 CALM      30.12R
GLENWOOD       CLEAR     63  59  88 N6        30.11S
APPLETON       CLEAR     63  57  82 N5        30.09S
BENSON         CLEAR     59  57  94 NE3       30.11S FOG
ORTONVILLE     CLEAR     61  57  88 MISG      30.10S
MADISON        CLEAR     63  63 100 NW5       30.10S
WILLMAR        FAIR      64  61  88 NE6       30.10S
$$
MNZ033>034-036-042>043-049>051-058-059-271200-
   Central Minnesota

CITY           SKY/WX    TMP DP  RH WIND       PRES   REMARKS
ST CLOUD       CLEAR     60  60 100 NW3       30.08S
SAUK CENTRE    FAIR      61  59  94 N5        30.10F
PAYNESVILLE    CLEAR     58  58  99 CALM      30.10S
AITKIN         FOG       52  50  93 CALM      30.09S VSB 3/4
PINE RIVER     CLEAR     54  54 100 CALM      30.14S
BRAINERD       CLEAR     56  55  97 CALM      30.10S
STAPLES        CLEAR     55  55 100 CALM      30.12R
LONG PRAIRIE   FAIR      59  57  94 NW3       30.11S
LITTLE FALLS   CLEAR     57  55  94 CALM      30.10S
LITCHFIELD     CLEAR     63  63 100 N3        30.09S
BUFFALO        CLEAR     64  59  82 N5        30.08S
MAPLE LAKE     CLEAR     63  61  93 N3        30.09S
HUTCHINSON     CLEAR     64  62  93 N3        30.09R
$$
MNZ037-044-045-052-053-271200-
   East Central Minnesota

CITY           SKY/WX    TMP DP  RH WIND       PRES   REMARKS
PRINCETON      CLEAR     61  59  94 N3        30.08S
MORA           CLEAR     59  55  88 CALM      30.10R
CAMBRIDGE      CLEAR     63  57  82 N3        30.06S
RUSH CITY      MOCLDY    59  56  92 CALM      30.08R
MOOSE LAKE     CLEAR     57  55  94 CALM      30.07S
HINCKLEY       FAIR      59  59 100 N3        30.08S
CLOQUET        CLEAR     57  54  88 NW5       30.09S
MCGREGOR       CLEAR     57  55  94 CALM      30.10S
$$
MNZ071>073-080-081-089-090-097-098-271200-
   Southwest Minnesota

CITY           SKY/WX    TMP DP  RH WIND       PRES   REMARKS
MONTEVIDEO     CLEAR     61  55  82 N3        30.10S
CANBY          CLEAR     61  59  94 CALM      30.12S
MARSHALL       CLEAR     60  59  96 NW6       30.10S
REDWOOD FALLS  CLEAR     64  60  87 N5        30.07S
OLIVIA         CLEAR     59  55  88 N5        30.07F
PIPESTONE      CLEAR     64  61  88 NE6       30.11S
WINDOM         CLEAR     61  57  88 N6        30.09R
WORTHINGTON    CLEAR     58  57  97 N6        30.10R
JACKSON        CLEAR     59  57  94 CALM      30.09R
TRACY          CLEAR     63  61  95 NW5       30.10S
SLAYTON        HVY RAIN  58  56  91 NW3       30.11S
$$
MNZ065>067-074>077-082>085-091>093-271200-
   South Central Minnesota

CITY           SKY/WX    TMP DP  RH WIND       PRES   REMARKS
MANKATO        CLEAR     63  61  93 CALM      30.06S
NEW ULM        CLEAR     64  61  88 N6        30.06S
ST JAMES       CLEAR     59  59 100 NW5       30.08R
FAIRMONT       CLEAR     61  60  97 N6        30.07R
GLENCOE        CLEAR     64  63  98 N3        30.07R
FARIBAULT      CLEAR     61  61 100 CALM      30.05S
OWATONNA       CLEAR     61  61 100 CALM      30.05S FOG
WASECA         CLEAR     63  61  94 N6        30.06S
ALBERT LEA     CLEAR     64  63  94 CALM      30.05S
$$
MNZ078>079-086>088-094>096-271200-
   Southeast Minnesota

CITY           SKY/WX    TMP DP  RH WIND       PRES   REMARKS
ROCHESTER      CLEAR     62  60  93 N7        30.05R
RED WING       CLEAR     61  59  94 CALM      30.03S
STANTON        CLEAR     60  58  95 CALM      30.03F FOG
DODGE CENTER   CLEAR     61  59  94 N5        30.05S
WINONA         FOG       63  63 100 CALM      30.03R VSB 3/4
AUSTIN         CLEAR     63  59  88 CALM      30.04S
PRESTON        CLEAR     61  59  91 N6        30.04S
$$
ABBREVIATIONS USED IN REMARKS
   TC - TEMPERATURES IN CELSIUS
  WCI - WIND CHILL INDEX
   HX - HEAT INDEX
  VSB - VISIBILITY
$$



USA.gov is the U.S. government's official web portal to all federal, state and local government web resources and services.